Погода в Живце

Польша     49°41′01″N   19°12′04″E
темп.,
°C
ветер,
м/с
пор.,
м/с
влажн.,
%
обл.,
%
осадки,
мм/ч
давл.,
гПа
погр.,
м
5 декабря, вс
вс501:00−1ю2260100 0.0 100489
04:00−2ююв2393100 0.8 1004160
07:00−1ю2495100 1.9 1004184
10:00+1ююз3686100 0.3 1005409
13:00+2зюз2479100 0.3 1005434
16:000с0094100 0.0 100610
19:00−1ююв0098100 0.0 100818
22:00−1с1199100 0.4 100961
6 декабря, пн
пн601:000ссз1199100 1.8 100996
04:000с1299100 1.5 1009131
07:00−1сз1299100 2.0 1011135
10:00−1сз2396100 0.4 1012318
13:00−1зсз248984 0.6 1013554
16:00−2зсз2293100 0.1 1014189
19:00−3сз1296100 0.3 1014173
22:00−3зсз1295100 0.2 1015199
7 декабря, вт
вт701:00−5з1199100 0.4 101414
04:00−6зюз119897 0.1 101416
07:00−7юз119887 0.3 101412
10:00−4сз118989 0.1 1015273
13:00−3с1282100 0.1 1014615
16:00−4ссз1194100 0.1 1015145
19:00−4св119891 0.2 101570
22:00−6вюв119992 0.0 101523
8 декабря, ср
ср801:00−6юв119894 0.1 1014120
04:00−7юв129891 0.0 101495
07:00−9юв11965 0.0 101315
10:00−4в01795 0.0 1012196
13:00−1всв11725 0.0 1010380
16:00−5вюв2294100 0.0 101113
19:00−5вюв229097 0.0 101027
22:00−6ююв229197 0.0 101120
9 декабря, чт
чт901:00−4юв1185100 0.0 100920
04:00−6ююв218474 0.0 100912
07:00−3ю1179100 0.1 100942
10:00−2ссв1278100 0.2 100892
13:00−2с2193100 1.0 1008188
16:00−3всв2296100 0.6 1007119
19:00−3в1196100 1.6 100585
22:00−3ссв1198100 2.6 100356